Time,TemperatureF,DewpointF,PressureIn,WindDirection,WindDirectionDegrees,WindSpeedMPH,WindSpeedGustMPH,Humidity,HourlyPrecipIn,Conditions,Clouds,dailyrainin,SoftwareType,DateUTC
2013-03-14 00:01:00,44.9,44.0,30.19,ESE,103,0.0,0.0,97,0.00,,,0.00,weatherlink.com 1.10,2013-03-14 07:01:00,
2013-03-14 01:01:00,44.4,44.0,30.18,ESE,114,0.0,2.0,98,0.00,,,0.00,weatherlink.com 1.10,2013-03-14 08:01:00,
2013-03-14 01:31:00,44.3,44.0,30.17,NNW,331,0.0,1.0,98,0.00,,,0.00,weatherlink.com 1.10,2013-03-14 08:31:00,
2013-03-14 01:46:00,44.1,44.0,30.17,NNW,339,2.0,3.0,98,0.00,,,0.00,weatherlink.com 1.10,2013-03-14 08:46:00,
2013-03-14 02:01:00,44.1,44.0,30.17,West,278,0.0,3.0,98,0.00,,,0.00,weatherlink.com 1.10,2013-03-14 09:01:00,
2013-03-14 02:16:00,44.1,44.0,30.17,NNW,344,2.0,3.0,98,0.00,,,0.00,weatherlink.com 1.10,2013-03-14 09:16:00,
2013-03-14 02:31:00,43.8,43.0,30.17,NNW,327,1.0,4.0,98,0.00,,,0.00,weatherlink.com 1.10,2013-03-14 09:31:00,
2013-03-14 02:46:00,43.8,43.0,30.18,WNW,298,1.0,4.0,98,0.01,,,0.01,weatherlink.com 1.10,2013-03-14 09:46:00,
2013-03-14 03:01:00,43.8,43.0,30.17,NNE,32,1.0,3.0,98,0.01,,,0.01,weatherlink.com 1.10,2013-03-14 10:01:00,
2013-03-14 03:16:00,43.9,43.0,30.16,NW,308,0.0,3.0,98,0.01,,,0.01,weatherlink.com 1.10,2013-03-14 10:16:00,
2013-03-14 03:31:00,43.9,43.0,30.16,WSW,246,0.0,1.0,98,0.01,,,0.01,weatherlink.com 1.10,2013-03-14 10:31:00,
2013-03-14 03:46:00,43.7,43.0,30.15,WNW,285,2.0,2.0,98,0.00,,,0.01,weatherlink.com 1.10,2013-03-14 10:46:00,
2013-03-14 04:01:00,43.5,43.0,30.14,NW,322,1.0,4.0,98,0.00,,,0.01,weatherlink.com 1.10,2013-03-14 11:01:00,
2013-03-14 04:16:00,43.3,43.0,30.14,WNW,294,0.0,3.0,98,0.00,,,0.01,weatherlink.com 1.10,2013-03-14 11:16:00,
2013-03-14 04:31:00,43.5,43.0,30.15,NW,308,3.0,6.0,98,0.00,,,0.01,weatherlink.com 1.10,2013-03-14 11:31:00,
2013-03-14 04:46:00,43.3,43.0,30.16,NW,322,2.0,7.0,98,0.00,,,0.01,weatherlink.com 1.10,2013-03-14 11:46:00,
2013-03-14 05:01:00,43.6,43.0,30.17,NNW,335,3.0,5.0,98,0.00,,,0.01,weatherlink.com 1.10,2013-03-14 12:01:00,
2013-03-14 05:16:00,42.8,43.0,30.17,WNW,302,0.0,4.0,100,0.00,,,0.01,weatherlink.com 1.10,2013-03-14 12:16:00,
2013-03-14 05:31:00,-999.0,-99.9,30.17,North,-999,-999.0,-999.0,-999,0.00,,,0.01,weatherlink.com 1.10,2013-03-14 12:31:00,
2013-03-14 05:46:00,-999.0,-99.9,30.17,North,-999,-999.0,-999.0,-999,0.00,,,0.01,weatherlink.com 1.10,2013-03-14 12:46:00,
2013-03-14 06:17:00,-999.0,-99.9,30.16,North,-999,-999.0,-999.0,-999,0.00,,,0.01,weatherlink.com 1.10,2013-03-14 13:17:00,
2013-03-14 06:32:00,-999.0,-99.9,30.18,North,-999,-999.0,-999.0,-999,0.00,,,0.01,weatherlink.com 1.10,2013-03-14 13:32:00,
2013-03-14 06:47:00,-999.0,-99.9,30.17,North,-999,-999.0,-999.0,-999,0.00,,,0.01,weatherlink.com 1.10,2013-03-14 13:47:00,
2013-03-14 07:02:00,-999.0,-99.9,30.17,North,-999,-999.0,-999.0,-999,0.00,,,0.01,weatherlink.com 1.10,2013-03-14 14:02:00,
2013-03-14 07:17:00,-999.0,-99.9,30.18,North,-999,-999.0,-999.0,-999,0.00,,,0.01,weatherlink.com 1.10,2013-03-14 14:17:00,
2013-03-14 07:32:00,-999.0,-99.9,30.18,North,-999,-999.0,-999.0,-999,0.00,,,0.01,weatherlink.com 1.10,2013-03-14 14:32:00,
2013-03-14 07:47:00,-999.0,-99.9,30.18,North,-999,-999.0,-999.0,-999,0.00,,,0.01,weatherlink.com 1.10,2013-03-14 14:47:00,
2013-03-14 08:02:00,-999.0,-99.9,30.18,North,-999,-999.0,-999.0,-999,0.00,,,0.01,weatherlink.com 1.10,2013-03-14 15:02:00,
2013-03-14 08:17:00,-999.0,-99.9,30.18,North,-999,-999.0,-999.0,-999,0.00,,,0.01,weatherlink.com 1.10,2013-03-14 15:17:00,
2013-03-14 08:32:00,-999.0,-99.9,30.18,North,-999,-999.0,-999.0,-999,0.00,,,0.01,weatherlink.com 1.10,2013-03-14 15:32:00,
2013-03-14 08:47:00,44.5,44.0,30.18,SSE,150,1.0,8.0,98,0.00,,,0.01,weatherlink.com 1.10,2013-03-14 15:47:00,
2013-03-14 09:02:00,44.7,44.0,30.20,North,360,2.0,4.0,98,0.00,,,0.01,weatherlink.com 1.10,2013-03-14 16:02:00,
2013-03-14 09:17:00,44.6,44.0,30.19,NW,315,4.0,9.0,98,0.00,,,0.01,weatherlink.com 1.10,2013-03-14 16:17:00,
2013-03-14 09:32:00,44.8,44.0,30.20,North,349,1.0,4.0,98,0.00,,,0.01,weatherlink.com 1.10,2013-03-14 16:32:00,
2013-03-14 09:47:00,44.9,44.0,30.20,WNW,290,2.0,5.0,98,0.00,,,0.01,weatherlink.com 1.10,2013-03-14 16:47:00,
2013-03-14 10:02:00,45.0,45.0,30.21,NW,326,5.0,7.0,98,0.00,,,0.01,weatherlink.com 1.10,2013-03-14 17:02:00,
2013-03-14 10:17:00,45.3,45.0,30.21,West,280,1.0,6.0,98,0.00,,,0.01,weatherlink.com 1.10,2013-03-14 17:17:00,
2013-03-14 10:48:00,45.5,45.0,30.23,East,84,0.0,4.0,97,0.00,,,0.01,weatherlink.com 1.10,2013-03-14 17:48:00,
2013-03-14 11:03:00,45.7,45.0,30.24,NNE,13,2.0,5.0,98,0.00,,,0.01,weatherlink.com 1.10,2013-03-14 18:03:00,
2013-03-14 11:18:00,45.5,45.0,30.25,WNW,289,2.0,8.0,97,0.00,,,0.01,weatherlink.com 1.10,2013-03-14 18:18:00,
2013-03-14 11:33:00,45.8,45.0,30.26,North,6,3.0,6.0,97,0.00,,,0.01,weatherlink.com 1.10,2013-03-14 18:33:00,
2013-03-14 11:48:00,46.5,46.0,30.24,SSE,150,4.0,8.0,97,0.00,,,0.01,weatherlink.com 1.10,2013-03-14 18:48:00,
2013-03-14 12:03:00,47.4,46.0,30.26,NW,321,3.0,13.0,95,0.00,,,0.01,weatherlink.com 1.10,2013-03-14 19:03:00,
2013-03-14 12:18:00,49.0,47.0,30.25,WNW,298,2.0,7.0,92,0.00,,,0.01,weatherlink.com 1.10,2013-03-14 19:18:00,
2013-03-14 12:33:00,49.3,47.0,30.24,WSW,250,2.0,7.0,91,0.00,,,0.01,weatherlink.com 1.10,2013-03-14 19:33:00,
2013-03-14 12:48:00,50.8,47.0,30.25,West,263,2.0,8.0,88,0.00,,,0.01,weatherlink.com 1.10,2013-03-14 19:48:00,
2013-03-14 13:03:00,51.4,47.0,30.25,NNE,20,1.0,6.0,86,0.00,,,0.01,weatherlink.com 1.10,2013-03-14 20:03:00,
2013-03-14 13:18:00,52.4,48.0,30.25,ESE,102,1.0,6.0,84,0.00,,,0.01,weatherlink.com 1.10,2013-03-14 20:18:00,
2013-03-14 13:33:00,53.1,48.0,30.25,North,11,2.0,6.0,82,0.00,,,0.01,weatherlink.com 1.10,2013-03-14 20:33:00,
2013-03-14 13:48:00,53.4,48.0,30.24,SE,143,1.0,5.0,82,0.00,,,0.01,weatherlink.com 1.10,2013-03-14 20:48:00,
2013-03-14 14:03:00,53.9,48.0,30.24,NW,311,0.0,6.0,80,0.00,,,0.01,weatherlink.com 1.10,2013-03-14 21:03:00,
2013-03-14 14:18:00,53.1,47.0,30.23,NW,317,7.0,7.0,79,0.00,,,0.01,weatherlink.com 1.10,2013-03-14 21:18:00,
2013-03-14 14:33:00,51.8,47.0,30.23,West,280,5.0,12.0,83,0.00,,,0.01,weatherlink.com 1.10,2013-03-14 21:33:00,
2013-03-14 14:48:00,52.4,47.0,30.22,NW,321,7.0,11.0,82,0.00,,,0.01,weatherlink.com 1.10,2013-03-14 21:48:00,
2013-03-14 15:03:00,52.1,47.0,30.21,West,277,6.0,11.0,82,0.00,,,0.01,weatherlink.com 1.10,2013-03-14 22:03:00,
2013-03-14 15:18:00,51.7,47.0,30.22,NNW,347,4.0,14.0,83,0.00,,,0.01,weatherlink.com 1.10,2013-03-14 22:18:00,
2013-03-14 15:33:00,51.8,47.0,30.23,NW,325,5.0,11.0,84,0.00,,,0.01,weatherlink.com 1.10,2013-03-14 22:33:00,
2013-03-14 15:48:00,51.4,47.0,30.23,NW,315,4.0,12.0,85,0.00,,,0.01,weatherlink.com 1.10,2013-03-14 22:48:00,
2013-03-14 16:03:00,51.2,47.0,30.24,NNW,329,2.0,9.0,86,0.00,,,0.01,weatherlink.com 1.10,2013-03-14 23:03:00,
2013-03-14 16:18:00,50.8,47.0,30.24,NNW,327,5.0,10.0,87,0.00,,,0.01,weatherlink.com 1.10,2013-03-14 23:18:00,
2013-03-14 16:33:00,50.3,47.0,30.25,NNW,342,6.0,11.0,88,0.00,,,0.01,weatherlink.com 1.10,2013-03-14 23:33:00,
2013-03-14 16:48:00,50.4,47.0,30.25,NNW,340,5.0,10.0,88,0.00,,,0.01,weatherlink.com 1.10,2013-03-14 23:48:00,
2013-03-14 17:03:00,50.1,47.0,30.25,North,352,1.0,8.0,89,0.00,,,0.01,weatherlink.com 1.10,2013-03-15 00:03:00,
2013-03-14 17:18:00,50.0,47.0,30.25,NNE,30,1.0,5.0,89,0.00,,,0.01,weatherlink.com 1.10,2013-03-15 00:18:00,
2013-03-14 17:33:00,50.0,47.0,30.25,WSW,253,2.0,4.0,88,0.00,,,0.01,weatherlink.com 1.10,2013-03-15 00:33:00,
2013-03-14 17:48:00,49.9,47.0,30.25,ESE,113,0.0,5.0,88,0.00,,,0.01,weatherlink.com 1.10,2013-03-15 00:48:00,
2013-03-14 18:03:00,49.7,46.0,30.25,WNW,285,5.0,6.0,88,0.00,,,0.01,weatherlink.com 1.10,2013-03-15 01:03:00,
2013-03-14 18:18:00,49.7,46.0,30.25,NW,308,0.0,5.0,88,0.00,,,0.01,weatherlink.com 1.10,2013-03-15 01:18:00,
2013-03-14 18:33:00,49.6,46.0,30.25,NNE,29,2.0,4.0,88,0.00,,,0.01,weatherlink.com 1.10,2013-03-15 01:33:00,
2013-03-14 18:48:00,49.7,46.0,30.25,ESE,109,0.0,3.0,88,0.00,,,0.01,weatherlink.com 1.10,2013-03-15 01:48:00,
2013-03-14 19:03:00,49.5,46.0,30.25,North,11,1.0,5.0,88,0.00,,,0.01,weatherlink.com 1.10,2013-03-15 02:03:00,
2013-03-14 19:18:00,49.3,46.0,30.25,East,97,0.0,5.0,89,0.00,,,0.01,weatherlink.com 1.10,2013-03-15 02:18:00,
2013-03-14 19:33:00,49.1,46.0,30.25,East,79,2.0,5.0,89,0.00,,,0.01,weatherlink.com 1.10,2013-03-15 02:33:00,
2013-03-14 19:48:00,49.1,46.0,30.26,East,82,1.0,5.0,89,0.00,,,0.01,weatherlink.com 1.10,2013-03-15 02:48:00,
2013-03-14 20:03:00,49.0,46.0,30.26,East,100,1.0,4.0,90,0.00,,,0.01,weatherlink.com 1.10,2013-03-15 03:03:00,
2013-03-14 20:18:00,49.1,46.0,30.26,SE,129,1.0,6.0,89,0.00,,,0.01,weatherlink.com 1.10,2013-03-15 03:18:00,
2013-03-14 20:34:00,49.3,46.0,30.27,ENE,74,2.0,5.0,89,0.00,,,0.01,weatherlink.com 1.10,2013-03-15 03:34:00,
2013-03-14 20:49:00,49.3,46.0,30.26,ESE,111,0.0,7.0,88,0.00,,,0.01,weatherlink.com 1.10,2013-03-15 03:49:00,
2013-03-14 21:04:00,49.3,46.0,30.26,East,79,0.0,5.0,88,0.00,,,0.01,weatherlink.com 1.10,2013-03-15 04:04:00,
2013-03-14 21:19:00,49.3,46.0,30.26,NNE,32,1.0,7.0,88,0.00,,,0.01,weatherlink.com 1.10,2013-03-15 04:19:00,
2013-03-14 21:34:00,49.7,46.0,30.26,NNW,332,2.0,4.0,87,0.00,,,0.01,weatherlink.com 1.10,2013-03-15 04:34:00,
2013-03-14 21:49:00,49.7,46.0,30.26,ENE,75,0.0,4.0,87,0.00,,,0.01,weatherlink.com 1.10,2013-03-15 04:49:00,
2013-03-14 22:04:00,49.7,46.0,30.27,NNW,346,0.0,5.0,87,0.00,,,0.01,weatherlink.com 1.10,2013-03-15 05:04:00,
2013-03-14 22:19:00,49.6,46.0,30.27,East,100,0.0,3.0,87,0.00,,,0.01,weatherlink.com 1.10,2013-03-15 05:19:00,
2013-03-14 22:34:00,49.5,46.0,30.28,NNE,32,0.0,2.0,88,0.00,,,0.01,weatherlink.com 1.10,2013-03-15 05:34:00,
2013-03-14 22:49:00,49.4,46.0,30.28,ENE,74,0.0,3.0,88,0.00,,,0.01,weatherlink.com 1.10,2013-03-15 05:49:00,
2013-03-14 23:04:00,49.2,46.0,30.28,East,91,0.0,2.0,89,0.00,,,0.01,weatherlink.com 1.10,2013-03-15 06:04:00,
2013-03-14 23:19:00,49.3,46.0,30.28,ESE,107,0.0,2.0,88,0.00,,,0.01,weatherlink.com 1.10,2013-03-15 06:19:00,
2013-03-14 23:34:00,49.5,46.0,30.28,ESE,103,0.0,3.0,87,0.00,,,0.01,weatherlink.com 1.10,2013-03-15 06:34:00,
2013-03-14 23:49:00,49.6,46.0,30.29,ESE,117,0.0,3.0,87,0.00,,,0.01,weatherlink.com 1.10,2013-03-15 06:49:00,